Tracking 21476 objects as of 29-Sep-2020
HD Live streaming from Space Station
objects crossing your sky now

STARLINK-1193

Track STARLINK-1193 now!
10-day predictions
STARLINK-1193 is classified as:


NORAD ID: 45100
Int'l Code: 2020-006BJ
Perigee: 555.6 km
Apogee: 558.0 km
Inclination: 53.0 °
Period: 95.6 minutes
Semi major axis: 6927 km
RCS: Unknown
Launch date: January 29, 2020
Source: United States (US)
Launch site: AIR FORCE EASTERN TEST RANGE (AFETR)
aabbcc
Your satellite tracking list
Your tracking list is empty




NASA's NSSDC Master Catalog

Two Line Element Set (TLE):
1 45100U 20006BJ  20272.91667824 -.00027910 +00000-0 -19029-2 0  9998
2 45100 053.0007 170.0774 0001750 082.1696 277.6382 15.05598932001753
Source of the keplerian elements: AFSPC